FENGYUN 1C DEB

Satellite information

Favourite Embed

Satellite Type and Status

DEBRISIN ORBIT

Key statistics

Satellite FENGYUN 1C DEB at a glance.

Uptime

9715

Days in orbit

Revolutions

≈ 14.4

Per day

Orbit

SSO

Sun Synchronous Orbit

Inclination

99.1

Latest

Satellite identification and parameters

Extended collection of information and parameters for FENGYUN 1C DEB.

Object identification

Identified? True

Debris? True

Object name: FENGYUN 1C DEB

International designator: 1999-025BTC

Object number (NORAD): 31416

Object ID (CCSDS): 31416

Country: PEOPLES REPUBLIC OF CHINA (PRC)

Current information (Y/N): Y

RCS size: SMALL

Orbital parameters

Period: 99.954 minutes

Inclination: 99.0518 deg

SMA: 7134.46 km

Apoapsis: 851.103 km

Periapsis: 661.548 km

RAAN: 32.3785 deg

Eccentricy: 0.0132845

Argument of periapsis: 263.9287 deg

Mean anomaly: 94.6749 deg

Mean motion: 14.40658556 rev/day

Mean motion (dot): 0.00001868 rev/day2

B* drag term: 0.00054277617 1/REarth

Two-line elements (TLE)

Creation date: Dec. 8, 2025, 6:20 p.m.

Reference frame: TEME

Reference center: EARTH

Epoch: Dec. 8, 2025, 9:35 a.m. UTC

TLE line 0: 0 FENGYUN 1C DEB

TLE line 1: 1 31416U 99025BTC 25342.39933149 .00001868 00000-0 54278-3 0 9999

TLE line 2: 2 31416 99.0518 32.3785 0132845 263.9287 94.6749 14.40658556654577

Live tracking on map

Real-time ground track for satellite FENGYUN 1C DEB.

In-orbit conjunctions

A list of the most updated potential collisions computed for object FENGYUN 1C DEB.

Target Orbit TCA Probability of collision Miss distance Type
NOAA 16 DEB SSO 2025-05-30 20:28:43 0.0001093936 45.0 (m) DEBRIS
THOR ABLESTAR DEB LEO 2025-04-29 18:24:44 0.0005645683 84.0 (m) DEBRIS
FENGYUN 1C DEB SSO 2024-11-11 20:03:32 0.0001137548 341.0 (m) DEBRIS
CZ-2C DEB SSO 2024-11-10 07:22:50 0.001216302 197.0 (m) DEBRIS
METEOR 1-10 LEO 2024-06-14 09:09:11 0.0004284538 828.0 (m) PAYLOAD

Associated space launch

Chinese polar orbiting meteorological satellite

FENGYUN 1C DEB was lifted into orbit during the mission ‘Long March 4B | Feng Yun 1C’, on board a Long March 4B space rocket.

The launch took place on May 10, 1999, 1:33 a.m. from Launch Complex 7.

For more information about the launch, click the button.

Launch to space Long March 4B | Feng Yun 1C
Long March 4B | Feng Yun 1C

Agency: N/A

Status: Launch Successful

Launch date: May 10, 1999, 1:33 a.m. UTC

Rocket: Long March 4B

Launch pad: Launch Complex 7

Location: Taiyuan Satellite Launch Center, People's Republic of China

...

Latest news about this satellite

There are no fresh news available about this satellite. Check back as we update our databases every day.


Newsletter sign-up

Weekly statistics, charts and insights to help you stay on top of the space industry.